{"data":{"norad_id":55976,"epoch":"2026-09-20T04:40:52.047840Z","epoch_age_seconds":44537,"freshness":"FRESH","line1":"1 55976U 23039D   26263.19504685  .00012189  00000+0  21683-3 0  9999","line2":"2 55976  97.5257  81.4127 0003562 111.7582 248.4048 15.50306300195551","mean_motion":15.503063,"eccentricity":0.0003562,"inclination_deg":97.5257,"raan_deg":81.4127,"arg_perigee_deg":111.7582,"mean_anomaly_deg":248.4048,"bstar":0.00021683,"rev_number":19555,"period_min":92.884870557515,"perigee_km":413.41103677426,"apogee_km":418.25105961179,"semimajor_km":6793.968048193,"source":"CELESTRAK","updated_at":"2026-09-20T09:00:33.223072Z"}}